| time (UTC) | temp C | wind direction | speed KPH | gust KPH | rain 1hr cm | rain 24hr cm | rain mn cm | humidity % | barometer mb |
| 20260506070651 | 15 | 208 | 0.0 | 0.0 | 0.00 | 0.00 | 0.00 | 85 | 1016.4 |
| 20260506070148 | 15 | 208 | 0.0 | 0.0 | 0.00 | 0.00 | 0.00 | 85 | 1016.6 |
| 20260506062126 | 15 | 287 | 1.6 | 1.6 | 0.00 | 0.00 | 0.00 | 81 | 1016.7 |
| 20260506061621 | 16 | 122 | 0.0 | 1.6 | 0.00 | 0.00 | 0.00 | 81 | 1016.7 |
| 20260506061120 | 16 | 151 | 0.0 | 1.6 | 0.00 | 0.00 | 0.00 | 81 | 1016.7 |
| 20260506060618 | 16 | 98 | 1.6 | 3.2 | 0.00 | 0.00 | 0.00 | 80 | 1016.8 |
| 20260506060114 | 16 | 316 | 3.2 | 4.8 | 0.00 | 0.00 | 0.00 | 80 | 1017.0 |
| 20260506051046 | 16 | 209 | 0.0 | 1.6 | 0.00 | 0.00 | 0.00 | 78 | 1017.6 |
| 20260506050544 | 16 | 322 | 1.6 | 3.2 | 0.00 | 0.00 | 0.00 | 78 | 1017.8 |
| 20260506045034 | 16 | 105 | 3.2 | 3.2 | 0.00 | 0.00 | 0.00 | 78 | 1017.7 |
| 20260506044532 | 16 | 317 | 1.6 | 4.8 | 0.00 | 0.00 | 0.00 | 78 | 1017.6 |
| 20260506044029 | 16 | 277 | 3.2 | 3.2 | 0.00 | 0.00 | 0.00 | 78 | 1017.6 |
| 20260506043526 | 16 | 85 | 3.2 | 4.8 | 0.00 | 0.00 | 0.00 | 78 | 1017.7 |
| 20260506043025 | 16 | 240 | 0.0 | 6.4 | 0.00 | 0.00 | 0.00 | 78 | 1017.8 |
| 20260506042523 | 16 | 275 | 3.2 | 4.8 | 0.00 | 0.00 | 0.00 | 78 | 1018.0 |
| 20260506042021 | 16 | 326 | 1.6 | 1.6 | 0.00 | 0.00 | 0.00 | 78 | 1017.9 |
| 20260506041519 | 17 | 94 | 0.0 | 1.6 | 0.00 | 0.00 | 0.00 | 77 | 1017.9 |
| 20260506041016 | 17 | 98 | 3.2 | 4.8 | 0.00 | 0.00 | 0.00 | 77 | 1018.0 |
| 20260506040514 | 17 | 135 | 3.2 | 3.2 | 0.00 | 0.00 | 0.00 | 77 | 1017.9 |
| 20260506040009 | 17 | 72 | 1.6 | 4.8 | 0.00 | 0.00 | 0.00 | 76 | 1017.9 |
| 20260506035506 | 17 | 242 | 3.2 | 4.8 | 0.00 | 0.00 | 0.00 | 76 | 1017.6 |
| 20260506035003 | 17 | 114 | 1.6 | 11.3 | 0.00 | 0.00 | 0.00 | 75 | 1017.9 |
| 20260506034501 | 17 | 300 | 0.0 | 11.3 | 0.00 | 0.00 | 0.00 | 75 | 1018.1 |
| 20260506033957 | 17 | 178 | 3.2 | 4.8 | 0.00 | 0.00 | 0.00 | 75 | 1018.1 |
| 20260506033455 | 17 | 99 | 1.6 | 4.8 | 0.00 | 0.00 | 0.00 | 75 | 1018.0 |
| 20260506032951 | 17 | 346 | 1.6 | 3.2 | 0.00 | 0.00 | 0.00 | 75 | 1018.1 |
| 20260506032449 | 17 | 278 | 1.6 | 3.2 | 0.00 | 0.00 | 0.00 | 74 | 1018.0 |
| 20260506031945 | 17 | 333 | 1.6 | 1.6 | 0.00 | 0.00 | 0.00 | 74 | 1018.2 |
| 20260506031443 | 17 | 271 | 0.0 | 3.2 | 0.00 | 0.00 | 0.00 | 74 | 1018.3 |
| 20260506030940 | 17 | 53 | 1.6 | 3.2 | 0.00 | 0.00 | 0.00 | 74 | 1018.1 |
| 20260506030438 | 17 | 132 | 1.6 | 1.6 | 0.00 | 0.00 | 0.00 | 74 | 1018.2 |
| 20260506025934 | 18 | 259 | 0.0 | 4.8 | 0.00 | 0.00 | 0.00 | 73 | 1018.3 |
| 20260506025431 | 18 | 24 | 0.0 | 1.6 | 0.00 | 0.00 | 0.00 | 73 | 1018.0 |
| 20260506024928 | 18 | 168 | 1.6 | 3.2 | 0.00 | 0.00 | 0.00 | 72 | 1018.2 |
| 20260506024425 | 18 | 73 | 1.6 | 3.2 | 0.00 | 0.00 | 0.00 | 72 | 1018.2 |
| 20260506023921 | 18 | 278 | 0.0 | 3.2 | 0.00 | 0.00 | 0.00 | 71 | 1018.0 |
| 20260506023418 | 18 | 110 | 1.6 | 3.2 | 0.00 | 0.00 | 0.00 | 71 | 1017.9 |
| 20260506022914 | 18 | 321 | 1.6 | 3.2 | 0.00 | 0.00 | 0.00 | 70 | 1017.9 |
| 20260506022412 | 18 | 336 | 1.6 | 4.8 | 0.00 | 0.00 | 0.00 | 70 | 1018.0 |
| 20260506021910 | 18 | 311 | 3.2 | 4.8 | 0.00 | 0.00 | 0.00 | 70 | 1018.0 |
| 20260506021407 | 18 | 305 | 1.6 | 9.7 | 0.00 | 0.00 | 0.00 | 69 | 1017.9 |
| 20260506020903 | 18 | 306 | 9.7 | 14.5 | 0.00 | 0.00 | 0.00 | 69 | 1017.8 |
| 20260506020402 | 19 | 121 | 1.6 | 6.4 | 0.00 | 0.00 | 0.00 | 69 | 1017.8 |
| 20260506015859 | 19 | 268 | 3.2 | 6.4 | 0.00 | 0.00 | 0.00 | 69 | 1017.9 |
| 20260506015356 | 19 | 76 | 4.8 | 6.4 | 0.00 | 0.00 | 0.00 | 68 | 1017.8 |
| 20260506014853 | 19 | 195 | 8.0 | 11.3 | 0.00 | 0.00 | 0.00 | 68 | 1017.8 |
| 20260506014350 | 20 | 217 | 4.8 | 9.7 | 0.00 | 0.00 | 0.00 | 68 | 1017.5 |
| 20260506013846 | 20 | 298 | 3.2 | 12.9 | 0.00 | 0.00 | 0.00 | 68 | 1017.5 |
| 20260506013344 | 20 | 304 | 1.6 | 6.4 | 0.00 | 0.00 | 0.00 | 67 | 1017.4 |
| 20260506012840 | 20 | 117 | 8.0 | 11.3 | 0.00 | 0.00 | 0.00 | 67 | 1017.4 |
| 20260506012337 | 20 | 288 | 1.6 | 4.8 | 0.00 | 0.00 | 0.00 | 67 | 1017.4 |
| 20260506011835 | 20 | 279 | 1.6 | 12.9 | 0.00 | 0.00 | 0.00 | 67 | 1017.2 |
| 20260506011331 | 20 | 26 | 3.2 | 4.8 | 0.00 | 0.00 | 0.00 | 67 | 1017.4 |
| 20260506010829 | 20 | 30 | 3.2 | 4.8 | 0.00 | 0.00 | 0.00 | 66 | 1017.1 |
| 20260506010326 | 20 | 9 | 4.8 | 9.7 | 0.00 | 0.00 | 0.00 | 66 | 1017.1 |
| 20260506005823 | 20 | 350 | 4.8 | 4.8 | 0.00 | 0.00 | 0.00 | 66 | 1017.3 |
| 20260506005320 | 20 | 321 | 3.2 | 9.7 | 0.00 | 0.00 | 0.00 | 66 | 1017.2 |
| 20260506004816 | 21 | 173 | 1.6 | 6.4 | 0.00 | 0.00 | 0.00 | 65 | 1016.9 |
| 20260506004314 | 21 | 129 | 4.8 | 6.4 | 0.00 | 0.00 | 0.00 | 64 | 1017.1 |
| 20260506003809 | 21 | 56 | 3.2 | 3.2 | 0.00 | 0.00 | 0.00 | 64 | 1016.8 |
| 20260506003306 | 21 | 102 | 3.2 | 9.7 | 0.00 | 0.00 | 0.00 | 63 | 1016.7 |
| 20260506002802 | 21 | 83 | 6.4 | 11.3 | 0.00 | 0.00 | 0.00 | 63 | 1016.8 |
| 20260506002259 | 21 | 298 | 3.2 | 4.8 | 0.00 | 0.00 | 0.00 | 62 | 1016.5 |
| 20260506001754 | 21 | 109 | 4.8 | 11.3 | 0.00 | 0.00 | 0.00 | 61 | 1016.7 |
| 20260506001252 | 22 | 63 | 3.2 | 9.7 | 0.00 | 0.00 | 0.00 | 61 | 1016.5 |
| 20260506000749 | 22 | 93 | 9.7 | 24.1 | 0.00 | 0.00 | 0.00 | 60 | 1016.5 |
| 20260506000247 | 22 | 256 | 6.4 | 6.4 | 0.00 | 0.00 | 0.00 | 60 | 1016.5 |
| 20260505235743 | 22 | 211 | 9.7 | 12.9 | 0.00 | 0.00 | 0.00 | 59 | 1016.5 |
| 20260505235241 | 22 | 285 | 3.2 | 20.9 | 0.00 | 0.00 | 0.00 | 59 | 1016.5 |
| 20260505234737 | 22 | 59 | 3.2 | 9.7 | 0.00 | 0.00 | 0.00 | 58 | 1016.4 |
| 20260505234235 | 22 | 195 | 8.0 | 11.3 | 0.00 | 0.00 | 0.00 | 57 | 1016.3 |
| 20260505233731 | 23 | 85 | 12.9 | 17.7 | 0.00 | 0.00 | 0.00 | 57 | 1016.4 |
| 20260505233230 | 23 | 285 | 3.2 | 4.8 | 0.00 | 0.00 | 0.00 | 56 | 1016.3 |
| 20260505232726 | 23 | 316 | 3.2 | 4.8 | 0.00 | 0.00 | 0.00 | 54 | 1016.4 |
| 20260505232224 | 23 | 95 | 4.8 | 9.7 | 0.00 | 0.00 | 0.00 | 49 | 1016.3 |
| 20260505231720 | 23 | 85 | 3.2 | 4.8 | 0.00 | 0.00 | 0.00 | 47 | 1016.1 |
| 20260505231220 | 24 | 204 | 3.2 | 6.4 | 0.00 | 0.00 | 0.00 | 48 | 1016.1 |
| 20260505230717 | 24 | 265 | 1.6 | 11.3 | 0.00 | 0.00 | 0.00 | 48 | 1016.2 |
| 20260505230214 | 24 | 199 | 4.8 | 9.7 | 0.00 | 0.00 | 0.00 | 48 | 1016.1 |
| 20260505225710 | 25 | 205 | 3.2 | 4.8 | 0.00 | 0.00 | 0.00 | 48 | 1016.3 |
| 20260505225207 | 25 | 80 | 4.8 | 6.4 | 0.00 | 0.00 | 0.00 | 47 | 1016.3 |
| 20260505224702 | 25 | 49 | 3.2 | 14.5 | 0.00 | 0.00 | 0.00 | 46 | 1016.2 |
| 20260505224201 | 25 | 226 | 6.4 | 9.7 | 0.00 | 0.00 | 0.00 | 46 | 1016.1 |
| 20260505223658 | 26 | 237 | 4.8 | 11.3 | 0.00 | 0.00 | 0.00 | 45 | 1016.2 |
| 20260505223153 | 25 | 263 | 1.6 | 4.8 | 0.00 | 0.00 | 0.00 | 45 | 1016.2 |
| 20260505222650 | 25 | 329 | 6.4 | 12.9 | 0.00 | 0.00 | 0.00 | 45 | 1016.4 |
| 20260505222146 | 25 | 288 | 4.8 | 11.3 | 0.00 | 0.00 | 0.00 | 45 | 1016.4 |
| 20260505221643 | 25 | 311 | 3.2 | 14.5 | 0.00 | 0.00 | 0.00 | 45 | 1016.2 |
| 20260505221140 | 26 | 266 | 6.4 | 14.5 | 0.00 | 0.00 | 0.00 | 44 | 1016.3 |
| 20260505220637 | 26 | 338 | 3.2 | 6.4 | 0.00 | 0.00 | 0.00 | 44 | 1016.3 |
| 20260505220135 | 26 | 65 | 3.2 | 4.8 | 0.00 | 0.00 | 0.00 | 44 | 1016.2 |
| 20260505215632 | 26 | 319 | 1.6 | 6.4 | 0.00 | 0.00 | 0.00 | 44 | 1015.9 |
| 20260505215130 | 26 | 340 | 8.0 | 12.9 | 0.00 | 0.00 | 0.00 | 44 | 1015.9 |
| 20260505214628 | 26 | 65 | 11.3 | 14.5 | 0.00 | 0.00 | 0.00 | 43 | 1016.0 |
| 20260505214125 | 26 | 285 | 4.8 | 6.4 | 0.00 | 0.00 | 0.00 | 44 | 1016.2 |
| 20260505213623 | 26 | 351 | 8.0 | 12.9 | 0.00 | 0.00 | 0.00 | 43 | 1016.2 |
| 20260505213119 | 26 | 172 | 4.8 | 11.3 | 0.00 | 0.00 | 0.00 | 42 | 1016.3 |
| 20260505212615 | 26 | 230 | 3.2 | 6.4 | 0.00 | 0.00 | 0.00 | 42 | 1016.2 |
| 20260505212113 | 26 | 234 | 3.2 | 4.8 | 0.00 | 0.00 | 0.00 | 42 | 1016.5 |
| 20260505211609 | 26 | 207 | 1.6 | 6.4 | 0.00 | 0.00 | 0.00 | 41 | 1016.3 |
| 20260505211107 | 27 | 47 | 4.8 | 12.9 | 0.00 | 0.00 | 0.00 | 41 | 1016.3 |
| 20260505210603 | 27 | 26 | 4.8 | 9.7 | 0.00 | 0.00 | 0.00 | 41 | 1016.2 |
| 20260505210100 | 27 | 99 | 8.0 | 14.5 | 0.00 | 0.00 | 0.00 | 42 | 1016.2 |
| 20260505205558 | 27 | 278 | 3.2 | 6.4 | 0.00 | 0.00 | 0.00 | 41 | 1016.2 |
| 20260505205055 | 28 | 331 | 6.4 | 12.9 | 0.00 | 0.00 | 0.00 | 38 | 1016.2 |
| 20260505204552 | 27 | 310 | 3.2 | 11.3 | 0.00 | 0.00 | 0.00 | 40 | 1016.1 |
| 20260505204050 | 27 | 68 | 4.8 | 17.7 | 0.00 | 0.00 | 0.00 | 40 | 1016.0 |
| 20260505203546 | 27 | 246 | 1.6 | 12.9 | 0.00 | 0.00 | 0.00 | 40 | 1016.3 |
| 20260505203043 | 27 | 57 | 6.4 | 14.5 | 0.00 | 0.00 | 0.00 | 41 | 1016.1 |
| 20260505202539 | 27 | 244 | 4.8 | 16.1 | 0.00 | 0.00 | 0.00 | 41 | 1016.1 |
| 20260505202035 | 27 | 106 | 3.2 | 11.3 | 0.00 | 0.00 | 0.00 | 40 | 1016.2 |
| 20260505201532 | 27 | 109 | 12.9 | 16.1 | 0.00 | 0.00 | 0.00 | 39 | 1016.4 |
| 20260505201030 | 27 | 263 | 1.6 | 6.4 | 0.00 | 0.00 | 0.00 | 41 | 1016.6 |
| 20260505200528 | 27 | 98 | 3.2 | 6.4 | 0.00 | 0.00 | 0.00 | 40 | 1016.7 |
| 20260505200024 | 27 | 318 | 1.6 | 3.2 | 0.00 | 0.00 | 0.00 | 41 | 1016.7 |
| 20260505195520 | 27 | 44 | 3.2 | 17.7 | 0.00 | 0.00 | 0.00 | 42 | 1016.6 |
| 20260505195018 | 27 | 234 | 4.8 | 11.3 | 0.00 | 0.00 | 0.00 | 41 | 1016.5 |
| 20260505194515 | 27 | 323 | 4.8 | 11.3 | 0.00 | 0.00 | 0.00 | 40 | 1016.6 |
| 20260505194010 | 27 | 291 | 1.6 | 11.3 | 0.00 | 0.00 | 0.00 | 42 | 1017.2 |
| 20260505193508 | 27 | 192 | 4.8 | 11.3 | 0.00 | 0.00 | 0.00 | 39 | 1017.1 |
| 20260505193005 | 27 | 101 | 3.2 | 9.7 | 0.00 | 0.00 | 0.00 | 39 | 1017.2 |
| 20260505192503 | 27 | 240 | 6.4 | 11.3 | 0.00 | 0.00 | 0.00 | 39 | 1017.1 |
| 20260505192000 | 27 | 277 | 3.2 | 11.3 | 0.00 | 0.00 | 0.00 | 39 | 1017.5 |
| 20260505191459 | 27 | 229 | 4.8 | 12.9 | 0.00 | 0.00 | 0.00 | 40 | 1017.5 |
| 20260505190956 | 27 | 208 | 3.2 | 12.9 | 0.00 | 0.00 | 0.00 | 40 | 1017.5 |
| 20260505190450 | 26 | 197 | 4.8 | 4.8 | 0.00 | 0.00 | 0.00 | 41 | 1017.5 |
| 20260505185946 | 27 | 121 | 6.4 | 6.4 | 0.00 | 0.00 | 0.00 | 42 | 1017.7 |
| 20260505185444 | 27 | 92 | 4.8 | 14.5 | 0.00 | 0.00 | 0.00 | 40 | 1017.8 |
| 20260505184940 | 27 | 296 | 6.4 | 11.3 | 0.00 | 0.00 | 0.00 | 41 | 1017.7 |
| 20260505184437 | 27 | 237 | 4.8 | 11.3 | 0.00 | 0.00 | 0.00 | 42 | 1017.9 |
| 20260505183933 | 27 | 105 | 9.7 | 14.5 | 0.00 | 0.00 | 0.00 | 40 | 1018.0 |
| 20260505183430 | 27 | 102 | 3.2 | 12.9 | 0.00 | 0.00 | 0.00 | 41 | 1018.0 |
| 20260505182927 | 27 | 284 | 3.2 | 16.1 | 0.00 | 0.00 | 0.00 | 41 | 1018.1 |
| 20260505182424 | 27 | 256 | 3.2 | 6.4 | 0.00 | 0.00 | 0.00 | 38 | 1018.0 |
| 20260505181920 | 28 | 261 | 3.2 | 6.4 | 0.00 | 0.00 | 0.00 | 38 | 1018.1 |
| 20260505181418 | 27 | 288 | 3.2 | 3.2 | 0.00 | 0.00 | 0.00 | 41 | 1018.1 |
| 20260505180914 | 27 | 120 | 6.4 | 20.9 | 0.00 | 0.00 | 0.00 | 41 | 1018.4 |
| 20260505180411 | 27 | 287 | 3.2 | 6.4 | 0.00 | 0.00 | 0.00 | 40 | 1018.2 |
| 20260505175908 | 27 | 86 | 3.2 | 4.8 | 0.00 | 0.00 | 0.00 | 40 | 1018.1 |
| 20260505175404 | 27 | 342 | 4.8 | 6.4 | 0.00 | 0.00 | 0.00 | 40 | 1018.1 |
| 20260505174900 | 27 | 152 | 3.2 | 4.8 | 0.00 | 0.00 | 0.00 | 39 | 1018.2 |
| 20260505174358 | 27 | 207 | 6.4 | 11.3 | 0.00 | 0.00 | 0.00 | 39 | 1018.3 |
| 20260505173854 | 27 | 83 | 3.2 | 9.7 | 0.00 | 0.00 | 0.00 | 42 | 1018.0 |
| 20260505173351 | 27 | 79 | 3.2 | 12.9 | 0.00 | 0.00 | 0.00 | 42 | 1018.3 |
| 20260505172848 | 26 | 148 | 1.6 | 4.8 | 0.00 | 0.00 | 0.00 | 43 | 1018.6 |
| 20260505172345 | 27 | 241 | 0.0 | 6.4 | 0.00 | 0.00 | 0.00 | 43 | 1018.3 |
| 20260505171845 | 27 | 243 | 3.2 | 12.9 | 0.00 | 0.00 | 0.00 | 43 | 1018.3 |
| 20260505171342 | 26 | 237 | 3.2 | 16.1 | 0.00 | 0.00 | 0.00 | 42 | 1018.4 |
| 20260505170838 | 26 | 37 | 6.4 | 9.7 | 0.00 | 0.00 | 0.00 | 46 | 1018.4 |
| 20260505170335 | 27 | 102 | 8.0 | 14.5 | 0.00 | 0.00 | 0.00 | 43 | 1018.5 |
| 20260505165831 | 27 | 253 | 3.2 | 11.3 | 0.00 | 0.00 | 0.00 | 44 | 1018.5 |
| 20260505165326 | 27 | 158 | 9.7 | 11.3 | 0.00 | 0.00 | 0.00 | 43 | 1018.3 |
| 20260505164822 | 26 | 269 | 3.2 | 6.4 | 0.00 | 0.00 | 0.00 | 45 | 1018.5 |
| 20260505164319 | 26 | 99 | 3.2 | 6.4 | 0.00 | 0.00 | 0.00 | 45 | 1018.5 |
| 20260505163818 | 26 | 293 | 3.2 | 6.4 | 0.00 | 0.00 | 0.00 | 43 | 1018.8 |
| 20260505163316 | 26 | 275 | 1.6 | 11.3 | 0.00 | 0.00 | 0.00 | 45 | 1018.6 |
| 20260505162814 | 26 | 269 | 4.8 | 6.4 | 0.00 | 0.00 | 0.00 | 46 | 1018.8 |
| 20260505162310 | 26 | 69 | 3.2 | 6.4 | 0.00 | 0.00 | 0.00 | 44 | 1018.6 |
| 20260505161807 | 25 | 61 | 1.6 | 4.8 | 0.00 | 0.00 | 0.00 | 46 | 1019.1 |
| 20260505161304 | 26 | 266 | 6.4 | 9.7 | 0.00 | 0.00 | 0.00 | 43 | 1019.1 |
| 20260505160802 | 25 | 304 | 6.4 | 9.7 | 0.00 | 0.00 | 0.00 | 44 | 1019.3 |
| 20260505160259 | 25 | 275 | 3.2 | 3.2 | 0.00 | 0.00 | 0.00 | 47 | 1019.3 |
| 20260505153238 | 25 | 113 | 1.6 | 6.4 | 0.00 | 0.00 | 0.00 | 48 | 1019.2 |
| 20260505152736 | 25 | 54 | 3.2 | 11.3 | 0.00 | 0.00 | 0.00 | 48 | 1019.2 |
| 20260505152232 | 25 | 289 | 14.5 | 16.1 | 0.00 | 0.00 | 0.00 | 45 | 1019.2 |
| 20260505151732 | 25 | 86 | 1.6 | 3.2 | 0.00 | 0.00 | 0.00 | 48 | 1019.3 |
| 20260505151230 | 25 | 280 | 1.6 | 3.2 | 0.00 | 0.00 | 0.00 | 50 | 1019.1 |
| 20260505150726 | 24 | 283 | 3.2 | 6.4 | 0.00 | 0.00 | 0.00 | 52 | 1019.2 |
| 20260505150223 | 24 | 27 | 3.2 | 11.3 | 0.00 | 0.00 | 0.00 | 52 | 1019.4 |
| 20260505140651 | 22 | 42 | 3.2 | 4.8 | 0.00 | 0.00 | 0.00 | 55 | 1019.2 |
| 20260505140148 | 22 | 274 | 3.2 | 9.7 | 0.00 | 0.00 | 0.00 | 57 | 1019.3 |
| 20260505130112 | 20 | 182 | 3.2 | 4.8 | 0.00 | 0.00 | 0.00 | 62 | 1019.5 |
| 20260505124601 | 20 | 242 | 1.6 | 4.8 | 0.00 | 0.00 | 0.00 | 65 | 1019.5 |
| 20260505124057 | 19 | 255 | 4.8 | 4.8 | 0.00 | 0.00 | 0.00 | 65 | 1019.6 |
| 20260505123554 | 18 | 241 | 1.6 | 3.2 | 0.00 | 0.00 | 0.00 | 67 | 1019.7 |
| 20260505123050 | 18 | 236 | 0.0 | 3.2 | 0.00 | 0.00 | 0.00 | 67 | 1019.6 |
| 20260505122547 | 18 | 280 | 1.6 | 9.7 | 0.00 | 0.00 | 0.00 | 68 | 1019.6 |
| 20260505122044 | 18 | 86 | 3.2 | 4.8 | 0.00 | 0.00 | 0.00 | 69 | 1019.5 |
| 20260505121541 | 18 | 254 | 3.2 | 3.2 | 0.00 | 0.00 | 0.00 | 69 | 1019.3 |
| 20260505121038 | 18 | 232 | 0.0 | 3.2 | 0.00 | 0.00 | 0.00 | 70 | 1019.3 |
| 20260505120534 | 17 | 228 | 1.6 | 1.6 | 0.00 | 0.00 | 0.00 | 71 | 1019.2 |
| 20260505120030 | 16 | 269 | 0.0 | 3.2 | 0.00 | 0.00 | 0.00 | 75 | 1019.2 |
| 20260505115524 | 16 | 283 | 1.6 | 1.6 | 0.00 | 0.00 | 0.00 | 78 | 1019.3 |
| 20260505115022 | 15 | 271 | 1.6 | 1.6 | 0.00 | 0.00 | 0.00 | 79 | 1019.2 |
| 20260505114519 | 15 | 223 | 1.6 | 3.2 | 0.00 | 0.00 | 0.00 | 81 | 1019.1 |
| 20260505114015 | 14 | 201 | 1.6 | 3.2 | 0.00 | 0.00 | 0.00 | 82 | 1019.1 |
| 20260505113512 | 14 | 211 | 1.6 | 1.6 | 0.00 | 0.00 | 0.00 | 83 | 1019.1 |
| 20260505113009 | 13 | 218 | 0.0 | 1.6 | 0.00 | 0.00 | 0.00 | 85 | 1019.0 |
| 20260505112505 | 13 | 204 | 1.6 | 1.6 | 0.00 | 0.00 | 0.00 | 88 | 1019.1 |
| 20260505112003 | 12 | 266 | 0.0 | 0.0 | 0.00 | 0.00 | 0.00 | 90 | 1018.9 |
| 20260505111502 | 12 | 234 | 0.0 | 0.0 | 0.00 | 0.00 | 0.00 | 91 | 1018.8 |
| 20260505110958 | 12 | 234 | 0.0 | 1.6 | 0.00 | 0.00 | 0.00 | 92 | 1018.7 |
| 20260505110455 | 11 | 234 | 0.0 | 0.0 | 0.00 | 0.00 | 0.00 | 92 | 1018.7 |
| 20260505101927 | 11 | 234 | 0.0 | 0.0 | 0.00 | 0.00 | 0.00 | 90 | 1018.4 |
| 20260505101426 | 11 | 234 | 0.0 | 0.0 | 0.00 | 0.00 | 0.00 | 89 | 1018.4 |
| 20260505100922 | 11 | 234 | 0.0 | 0.0 | 0.00 | 0.00 | 0.00 | 88 | 1018.2 |
| 20260505100420 | 12 | 234 | 0.0 | 0.0 | 0.00 | 0.00 | 0.00 | 88 | 1018.1 |
| 20260505095915 | 12 | 234 | 0.0 | 0.0 | 0.00 | 0.00 | 0.00 | 89 | 1017.9 |
| 20260505095413 | 12 | 234 | 0.0 | 0.0 | 0.00 | 0.00 | 0.00 | 88 | 1018.0 |
| 20260505094909 | 12 | 234 | 0.0 | 0.0 | 0.00 | 0.00 | 0.00 | 88 | 1017.9 |
| 20260505094406 | 12 | 234 | 0.0 | 0.0 | 0.00 | 0.00 | 0.00 | 87 | 1017.9 |
| 20260505093901 | 12 | 234 | 0.0 | 0.0 | 0.00 | 0.00 | 0.00 | 86 | 1017.9 |
| 20260505093359 | 12 | 234 | 0.0 | 0.0 | 0.00 | 0.00 | 0.00 | 86 | 1017.9 |
| 20260505092856 | 12 | 234 | 0.0 | 0.0 | 0.00 | 0.00 | 0.00 | 86 | 1017.8 |
| 20260505092354 | 12 | 234 | 0.0 | 0.0 | 0.00 | 0.00 | 0.00 | 85 | 1017.8 |
| 20260505091851 | 12 | 234 | 0.0 | 0.0 | 0.00 | 0.00 | 0.00 | 84 | 1017.7 |
| 20260505091349 | 12 | 234 | 0.0 | 0.0 | 0.00 | 0.00 | 0.00 | 83 | 1017.6 |
| 20260505090847 | 13 | 234 | 0.0 | 0.0 | 0.00 | 0.00 | 0.00 | 83 | 1017.6 |
| 20260505090345 | 13 | 234 | 0.0 | 0.0 | 0.00 | 0.00 | 0.00 | 82 | 1017.8 |
| 20260505085841 | 13 | 234 | 0.0 | 0.0 | 0.00 | 0.00 | 0.00 | 82 | 1017.6 |
| 20260505085340 | 13 | 234 | 0.0 | 0.0 | 0.00 | 0.00 | 0.00 | 82 | 1017.5 |
| 20260505084837 | 13 | 234 | 0.0 | 0.0 | 0.00 | 0.00 | 0.00 | 80 | 1017.6 |
| 20260505084335 | 13 | 234 | 0.0 | 0.0 | 0.00 | 0.00 | 0.00 | 80 | 1017.6 |
| 20260505083832 | 13 | 234 | 0.0 | 0.0 | 0.00 | 0.00 | 0.00 | 79 | 1017.7 |
| 20260505083330 | 13 | 234 | 0.0 | 1.6 | 0.00 | 0.00 | 0.00 | 78 | 1017.5 |
| 20260505082826 | 13 | 235 | 0.0 | 0.0 | 0.00 | 0.00 | 0.00 | 78 | 1017.6 |
| 20260505082322 | 13 | 235 | 0.0 | 0.0 | 0.00 | 0.00 | 0.00 | 77 | 1017.4 |
| 20260505081819 | 14 | 235 | 0.0 | 0.0 | 0.00 | 0.00 | 0.00 | 76 | 1017.4 |
| 20260505081316 | 14 | 234 | 0.0 | 0.0 | 0.00 | 0.00 | 0.00 | 76 | 1017.2 |
| 20260505080812 | 14 | 191 | 0.0 | 0.0 | 0.00 | 0.00 | 0.00 | 75 | 1017.2 |
| 20260505080308 | 15 | 191 | 0.0 | 0.0 | 0.00 | 0.00 | 0.00 | 74 | 1017.4 |
| 20260505075804 | 15 | 93 | 0.0 | 0.0 | 0.00 | 0.00 | 0.00 | 74 | 1017.3 |
| 20260505075304 | 15 | 53 | 0.0 | 0.0 | 0.00 | 0.00 | 0.00 | 73 | 1017.3 |
| 20260505074758 | 15 | 182 | 0.0 | 1.6 | 0.00 | 0.00 | 0.00 | 73 | 1017.4 |
| 20260505074255 | 15 | 174 | 0.0 | 1.6 | 0.00 | 0.00 | 0.00 | 73 | 1017.5 |
| 20260505073753 | 15 | 115 | 0.0 | 0.0 | 0.00 | 0.00 | 0.00 | 72 | 1017.3 |
| 20260505073251 | 15 | 124 | 0.0 | 0.0 | 0.00 | 0.00 | 0.00 | 72 | 1017.4 |
| 20260505072747 | 15 | 171 | 0.0 | 1.6 | 0.00 | 0.00 | 0.00 | 72 | 1017.3 |
| 20260505072243 | 15 | 199 | 3.2 | 3.2 | 0.00 | 0.00 | 0.00 | 72 | 1017.4 |
| 20260505071739 | 15 | 190 | 0.0 | 3.2 | 0.00 | 0.00 | 0.00 | 71 | 1017.3 |
| 20260505071236 | 15 | 99 | 1.6 | 1.6 | 0.00 | 0.00 | 0.00 | 70 | 1017.1 |